GW4034 Weather Reports


Display with metric or nautical units.
time (UTC)temp
F
wind
direction
speed
MPH
gust
MPH
rain 1hr
in
rain 24hr
in
rain mn
in
humidity
%
barometer
mb
20260507104940 49 187 0.0 0.0 0.00 0.16 0.16 90 1014.4
20260507104438 49 195 0.0 0.0 0.00 0.16 0.16 90 1014.5
20260507103933 49 196 0.0 0.0 0.00 0.16 0.16 91 1014.4
20260507103430 49 186 0.0 0.0 0.00 0.16 0.16 91 1014.2
20260507102926 49 208 1.0 1.0 0.00 0.16 0.16 91 1014.2
20260507102423 49 201 0.0 0.0 0.00 0.16 0.16 91 1014.1
20260507101919 49 201 2.0 2.0 0.00 0.16 0.16 91 1013.9
20260507101414 49 256 1.0 1.0 0.00 0.16 0.16 92 1013.7
20260507100911 49 299 2.0 3.0 0.00 0.16 0.16 92 1013.8
20260507100409 49 115 1.0 2.0 0.00 0.16 0.16 92 1013.6
20260507095907 49 280 2.0 2.0 0.00 0.16 0.16 92 1013.6
20260507095403 49 26 1.0 1.0 0.00 0.16 0.16 92 1013.8
20260507094901 49 252 1.0 3.0 0.00 0.16 0.16 92 1013.9
20260507094357 49 187 0.0 0.0 0.00 0.16 0.16 93 1013.9
20260507093854 49 311 0.0 1.0 0.00 0.16 0.16 93 1013.8
20260507093352 49 266 0.0 1.0 0.00 0.16 0.16 93 1013.7
20260507092850 49 259 1.0 1.0 0.00 0.16 0.16 93 1013.9
20260507092346 50 167 1.0 1.0 0.00 0.16 0.16 93 1013.5
20260507091843 50 231 1.0 1.0 0.07 0.16 0.16 93 1013.6
20260507091339 50 200 0.0 1.0 0.07 0.16 0.16 93 1013.7
20260507090835 50 176 0.0 0.0 0.00 0.15 0.15 93 1013.7
20260507090331 50 237 1.0 2.0 0.07 0.15 0.15 93 1013.4
20260507085829 50 301 0.0 1.0 0.07 0.15 0.15 93 1013.5
20260507085325 50 99 1.0 1.0 0.00 0.14 0.14 93 1013.5
20260507084823 50 319 5.0 7.0 0.05 0.14 0.14 93 1013.4
20260507084319 50 280 1.0 1.0 0.05 0.14 0.14 93 1013.6
20260507083817 50 298 2.0 2.0 0.00 0.13 0.13 93 1013.2
20260507083313 50 274 1.0 4.0 0.00 0.13 0.13 93 1013.6
20260507082809 50 246 1.0 1.0 0.07 0.13 0.13 93 1013.4
20260507082306 50 187 0.0 0.0 0.12 0.13 0.13 93 1013.6
20260507081802 50 219 2.0 2.0 0.05 0.12 0.12 93 1013.8
20260507081258 50 237 1.0 1.0 0.00 0.11 0.11 92 1013.9
20260507080755 50 231 2.0 3.0 0.00 0.11 0.11 93 1013.7
20260507080251 50 206 1.0 1.0 0.00 0.11 0.11 92 1013.9
20260507075746 51 344 3.0 3.0 0.00 0.11 0.11 92 1013.5
20260507075243 51 217 1.0 1.0 0.07 0.11 0.11 92 1013.8
20260507074739 51 21 2.0 2.0 0.07 0.11 0.11 92 1013.5
20260507074238 51 13 1.0 1.0 0.05 0.10 0.10 92 1013.5
20260507073734 51 348 2.0 2.0 0.05 0.10 0.10 92 1013.9
20260507073230 51 276 2.0 2.0 0.07 0.09 0.09 92 1013.7
20260507072728 51 278 3.0 3.0 0.07 0.09 0.09 92 1013.9
20260507072225 51 215 1.0 1.0 0.00 0.08 0.08 92 1013.8
20260507071723 51 107 1.0 2.0 0.00 0.08 0.08 92 1013.2
20260507071219 51 226 1.0 1.0 0.05 0.08 0.08 91 1013.5
20260507070716 51 299 2.0 3.0 0.05 0.08 0.08 91 1013.3
20260507070213 51 67 0.0 1.0 0.00 0.07 0.07 91 1013.4
20260507065709 52 219 2.0 2.0 0.00 0.07 0.07 91 1013.6
20260507065206 52 315 2.0 2.0 0.00 0.07 0.07 91 1013.7
20260507064704 52 293 1.0 1.0 0.00 0.07 0.07 91 1013.3
20260507064203 52 179 0.0 0.0 0.07 0.07 0.07 91 1013.1
20260507063700 53 190 0.0 0.0 0.07 0.07 0.07 91 1013.4
20260507063156 53 243 1.0 1.0 0.05 0.06 0.06 91 1013.0
20260507062653 53 167 0.0 0.0 0.12 0.06 0.06 90 1012.6
20260507062151 53 177 0.0 0.0 0.07 0.05 0.05 90 1013.0
20260507061648 53 197 0.0 0.0 0.00 0.04 0.04 89 1013.4
20260507061146 53 178 0.0 0.0 0.07 0.04 0.04 89 1013.0
20260507060643 53 265 2.0 3.0 0.12 0.04 0.04 88 1013.5
20260507060140 54 215 1.0 1.0 0.19 0.04 0.04 87 1013.3
20260507055635 54 342 2.0 2.0 0.07 0.02 0.02 86 1012.9
20260507055131 54 182 2.0 2.0 0.00 0.01 0.01 85 1013.5
20260507052201 55 209 2.0 2.0 0.00 0.00 0.00 85 1012.9
20260507051700 55 209 2.0 2.0 0.00 0.00 0.00 85 1012.9
20260507051155 55 178 0.0 1.0 0.00 0.00 0.00 85 1013.1
20260507050652 56 257 1.0 1.0 0.00 0.00 0.00 85 1013.1
20260507050149 56 34 2.0 3.0 0.00 0.00 0.00 85 1012.6
20260507045646 56 185 1.0 1.0 0.00 0.00 0.00 85 1012.8
20260507045143 56 92 2.0 3.0 0.00 0.00 0.00 84 1012.8
20260507044640 56 158 0.0 0.0 0.00 0.00 0.00 84 1012.8
20260507044136 56 205 0.0 0.0 0.00 0.00 0.00 85 1012.9
20260507043633 56 229 1.0 1.0 0.00 0.00 0.00 84 1013.0
20260507043125 56 342 3.0 4.0 0.00 0.00 0.00 84 1012.9
20260507042621 56 335 2.0 3.0 0.00 0.00 0.00 84 1013.0
20260507042116 56 277 1.0 2.0 0.00 0.00 0.00 84 1013.0
20260507041613 56 311 3.0 3.0 0.00 0.00 0.00 84 1012.9
20260507041109 56 183 0.0 0.0 0.00 0.00 0.00 84 1013.1
20260507040606 56 185 1.0 1.0 0.00 0.00 0.00 84 1012.9
20260507035558 56 188 0.0 0.0 0.00 0.15 0.15 85 1012.7
20260507035055 56 327 3.0 4.0 0.00 0.15 0.15 87 1012.8
20260507034551 56 262 1.0 1.0 0.00 0.15 0.15 88 1012.7
20260507034049 56 179 0.0 1.0 0.00 0.15 0.15 89 1012.5
20260507033548 56 198 0.0 0.0 0.00 0.15 0.15 89 1012.6
20260507033044 56 22 3.0 3.0 0.00 0.15 0.15 89 1012.4
20260507032541 56 185 1.0 1.0 0.00 0.15 0.15 89 1012.5
20260507032038 56 324 2.0 2.0 0.00 0.15 0.15 89 1012.5
20260507031534 56 228 1.0 1.0 0.00 0.15 0.15 89 1012.8
20260507031031 56 195 1.0 1.0 0.00 0.15 0.15 89 1012.6
20260507030528 57 239 0.0 1.0 0.00 0.15 0.15 89 1012.8
20260507030026 57 278 1.0 2.0 0.00 0.15 0.15 89 1012.9
20260507025522 57 200 1.0 1.0 0.00 0.15 0.15 89 1013.0
20260507025020 57 192 0.0 0.0 0.00 0.15 0.15 89 1013.0
20260507024518 57 239 1.0 1.0 0.00 0.15 0.15 89 1013.1
20260507024014 57 176 2.0 3.0 0.00 0.15 0.15 90 1013.1
20260507023510 57 267 2.0 2.0 0.00 0.15 0.15 91 1013.1
20260507023008 57 213 0.0 1.0 0.07 0.15 0.15 91 1013.0
20260507022504 58 329 2.0 3.0 0.12 0.15 0.15 92 1013.1
20260507022000 59 243 2.0 2.0 0.05 0.14 0.14 93 1012.8
20260507021455 60 179 1.0 1.0 0.12 0.13 0.13 93 1013.0
20260507020952 60 183 0.0 1.0 0.24 0.13 0.13 93 1012.9
20260507020449 60 187 2.0 2.0 0.24 0.12 0.12 93 1012.8
20260507015947 59 197 2.0 2.0 0.12 0.10 0.10 93 1012.7
20260507015445 59 204 0.0 0.0 0.05 0.08 0.08 93 1012.3
20260507014942 59 204 0.0 0.0 0.05 0.08 0.08 93 1012.4
20260507014438 59 204 0.0 0.0 0.05 0.08 0.08 93 1012.4
20260507013934 59 204 0.0 0.0 0.00 0.07 0.07 93 1012.3
20260507013431 59 204 0.0 0.0 0.00 0.07 0.07 93 1012.4
20260507012929 59 203 0.0 0.0 0.00 0.07 0.07 93 1012.3
20260507012426 59 207 0.0 0.0 0.00 0.07 0.07 92 1012.4
20260507011922 59 194 0.0 0.0 0.00 0.07 0.07 93 1012.1
20260507011420 59 190 0.0 0.0 0.00 0.07 0.07 92 1012.3
20260507010914 59 176 0.0 0.0 0.00 0.07 0.07 92 1012.3
20260507010409 59 193 0.0 0.0 0.00 0.07 0.07 92 1012.3
20260507005907 59 198 0.0 0.0 0.00 0.07 0.07 92 1012.3
20260507005404 59 165 0.0 0.0 0.00 0.07 0.07 92 1012.5
20260507004900 59 165 0.0 0.0 0.00 0.07 0.07 92 1012.5
20260507004357 58 167 0.0 0.0 0.00 0.07 0.07 92 1012.1
20260507003854 58 186 0.0 0.0 0.00 0.07 0.07 92 1012.2
20260507003350 59 192 0.0 0.0 0.00 0.07 0.07 92 1012.0
20260507002845 59 174 0.0 0.0 0.00 0.07 0.07 92 1012.1
20260507002341 59 185 0.0 0.0 0.00 0.07 0.07 92 1012.1
20260507001839 59 197 1.0 1.0 0.00 0.07 0.07 92 1012.1
20260507001335 59 178 0.0 0.0 0.00 0.07 0.07 92 1012.0
20260507000832 59 183 0.0 0.0 0.00 0.07 0.07 92 1012.0
20260507000328 59 170 1.0 1.0 0.00 0.07 0.07 92 1011.9
20260506235824 60 178 0.0 0.0 0.00 0.07 0.07 92 1011.7
20260506235321 60 172 0.0 0.0 0.00 0.07 0.07 92 1011.8
20260506234817 60 181 0.0 0.0 0.00 0.07 0.07 92 1011.9
20260506234315 60 178 0.0 0.0 0.00 0.07 0.07 92 1011.9
20260506233812 60 169 0.0 0.0 0.00 0.07 0.07 92 1012.1
20260506233308 60 181 0.0 1.0 0.00 0.07 0.07 92 1012.1
20260506232805 60 171 0.0 0.0 0.00 0.07 0.07 92 1012.0
20260506232300 60 205 0.0 1.0 0.00 0.07 0.07 92 1012.0
20260506231757 60 181 0.0 0.0 0.00 0.07 0.07 92 1012.2
20260506231255 60 191 0.0 0.0 0.00 0.07 0.07 92 1012.1
20260506230752 60 191 0.0 0.0 0.00 0.07 0.07 92 1012.1
20260506230248 60 187 0.0 1.0 0.00 0.07 0.07 92 1012.0
20260506225745 60 209 0.0 0.0 0.00 0.07 0.07 93 1011.8
20260506225242 60 164 0.0 1.0 0.00 0.07 0.07 93 1011.7
20260506224738 60 191 0.0 1.0 0.00 0.07 0.07 93 1011.8
20260506224236 60 192 1.0 1.0 0.00 0.07 0.07 93 1011.8
20260506223732 60 213 1.0 1.0 0.00 0.07 0.07 93 1011.8
20260506223227 60 189 0.0 0.0 0.00 0.07 0.07 93 1011.9
20260506222725 60 179 0.0 1.0 0.00 0.07 0.07 93 1011.7
20260506222220 60 174 0.0 0.0 0.00 0.07 0.07 93 1011.7
20260506221718 60 180 0.0 0.0 0.00 0.07 0.07 93 1011.6
20260506221216 60 177 1.0 2.0 0.00 0.07 0.07 93 1011.7
20260506220713 60 227 2.0 3.0 0.00 0.07 0.07 93 1011.4
20260506220208 60 227 2.0 3.0 0.00 0.07 0.07 93 1011.4
20260506215705 60 199 0.0 0.0 0.00 0.07 0.07 93 1011.7
20260506215200 60 200 0.0 0.0 0.00 0.07 0.07 93 1011.4
20260506214652 60 198 1.0 1.0 0.00 0.07 0.07 93 1011.4
20260506214149 60 180 0.0 0.0 0.00 0.07 0.07 93 1011.2
20260506213648 60 290 1.0 1.0 0.00 0.07 0.07 93 1011.4
20260506213144 60 224 1.0 2.0 0.00 0.07 0.07 93 1011.3
20260506212641 60 205 1.0 1.0 0.00 0.07 0.07 93 1011.4
20260506212136 59 198 0.0 0.0 0.00 0.07 0.07 93 1011.3
20260506211632 59 178 0.0 0.0 0.00 0.07 0.07 93 1011.2
20260506211129 59 197 0.0 1.0 0.00 0.07 0.07 93 1011.2
20260506210626 60 203 1.0 1.0 0.00 0.07 0.07 93 1011.2
20260506210122 60 177 0.0 0.0 0.00 0.07 0.07 93 1011.1
20260506205619 60 222 2.0 2.0 0.00 0.07 0.07 93 1011.0
20260506205114 60 178 0.0 1.0 0.00 0.07 0.07 93 1011.3
20260506204612 60 184 0.0 1.0 0.00 0.07 0.07 93 1010.9
20260506204109 60 209 0.0 0.0 0.00 0.07 0.07 93 1011.2
20260506203607 60 177 0.0 0.0 0.00 0.07 0.07 93 1011.4
20260506203103 60 185 0.0 1.0 0.00 0.07 0.07 93 1011.2
20260506202601 60 171 1.0 2.0 0.00 0.07 0.07 93 1011.3
20260506202057 59 213 0.0 1.0 0.00 0.07 0.07 92 1011.2
20260506201555 59 193 1.0 1.0 0.00 0.07 0.07 92 1011.4
20260506201051 59 168 1.0 1.0 0.07 0.07 0.07 92 1011.5
20260506200547 59 176 0.0 0.0 0.07 0.07 0.07 92 1011.5
20260506200044 59 165 0.0 1.0 0.00 0.06 0.06 92 1011.6
20260506195541 59 175 1.0 1.0 0.00 0.06 0.06 91 1011.7
20260506195037 59 171 0.0 0.0 0.00 0.06 0.06 91 1011.7
20260506194535 59 181 0.0 0.0 0.07 0.06 0.06 91 1012.0
20260506194031 59 169 1.0 1.0 0.07 0.06 0.06 90 1012.0
20260506193529 59 170 1.0 2.0 0.00 0.05 0.05 90 1012.1
20260506193026 60 119 0.0 1.0 0.00 0.05 0.05 90 1012.1
20260506192523 60 181 0.0 1.0 0.00 0.05 0.05 90 1012.2
20260506192018 60 165 1.0 2.0 0.00 0.05 0.05 90 1012.2
20260506191515 60 188 0.0 0.0 0.00 0.05 0.05 90 1012.2
20260506191012 60 162 0.0 0.0 0.00 0.05 0.05 90 1012.1
20260506190509 60 168 0.0 1.0 0.00 0.05 0.05 90 1012.0
20260506190006 60 172 1.0 1.0 0.00 0.05 0.05 89 1012.0
20260506185504 60 168 0.0 0.0 0.00 0.05 0.05 89 1012.2
20260506185000 60 147 3.0 4.0 0.00 0.05 0.05 88 1012.2
20260506184457 61 162 2.0 3.0 0.00 0.05 0.05 88 1012.3
20260506183954 61 155 0.0 1.0 0.00 0.05 0.05 88 1012.3
20260506183449 61 177 1.0 1.0 0.00 0.05 0.05 87 1012.5
20260506182946 62 196 1.0 1.0 0.00 0.05 0.05 87 1012.4
20260506182444 61 172 0.0 0.0 0.00 0.05 0.05 88 1012.6
20260506181941 61 192 2.0 2.0 0.00 0.05 0.05 88 1012.5
20260506181439 62 228 4.0 4.0 0.00 0.05 0.05 88 1012.7
20260506180935 61 189 1.0 1.0 0.05 0.05 0.05 88 1012.7
20260506180432 61 170 0.0 0.0 0.05 0.05 0.05 89 1012.7
20260506175929 61 179 0.0 0.0 0.00 0.04 0.04 89 1013.0
20260506175425 60 237 1.0 2.0 0.07 0.04 0.04 89 1012.7
20260506174917 60 224 0.0 1.0 0.07 0.04 0.04 89 1012.7
20260506174414 60 170 0.0 1.0 0.05 0.03 0.03 88 1012.6
20260506173912 60 195 0.0 1.0 0.05 0.03 0.03 87 1012.5
20260506173408 60 172 1.0 2.0 0.00 0.02 0.02 87 1012.6
20260506172906 60 190 0.0 1.0 0.00 0.02 0.02 86 1012.8
20260506172402 60 163 0.0 1.0 0.00 0.02 0.02 87 1012.7
20260506171859 61 176 0.0 1.0 0.00 0.02 0.02 86 1012.9
20260506171356 61 186 1.0 1.0 0.00 0.02 0.02 86 1012.9
20260506170853 61 159 0.0 0.0 0.00 0.02 0.02 85 1013.2
20260506170349 61 174 0.0 1.0 0.07 0.02 0.02 85 1012.8
20260506165844 61 171 0.0 0.0 0.07 0.02 0.02 85 1013.0
20260506165341 62 169 0.0 0.0 0.05 0.01 0.01 84 1013.2
20260506164837 62 169 0.0 0.0 0.05 0.01 0.01 84 1013.2
20260506164334 63 164 0.0 0.0 0.00 0.00 0.00 82 1013.5
20260506163831 63 170 0.0 0.0 0.00 0.00 0.00 81 1013.4
20260506163326 63 164 1.0 1.0 0.00 0.00 0.00 79 1013.9
20260506162821 64 160 0.0 1.0 0.00 0.00 0.00 78 1013.8
20260506162319 64 170 1.0 2.0 0.00 0.00 0.00 77 1013.9
20260506161816 64 198 2.0 3.0 0.00 0.00 0.00 76 1014.0
20260506161313 66 155 0.0 0.0 0.00 0.00 0.00 75 1013.8
20260506160812 66 155 0.0 0.0 0.00 0.00 0.00 75 1013.8
20260506160308 66 173 1.0 2.0 0.00 0.00 0.00 74 1013.9
20260506155807 66 162 0.0 0.0 0.00 0.00 0.00 75 1013.7
20260506155306 66 162 0.0 0.0 0.00 0.00 0.00 76 1013.9
20260506153415 66 165 0.0 1.0 0.00 0.00 0.00 75 1014.0
20260506152913 66 190 3.0 6.0 0.00 0.00 0.00 74 1014.0
20260506152409 66 176 1.0 1.0 0.00 0.00 0.00 73 1014.3
20260506151908 66 176 1.0 1.0 0.00 0.00 0.00 73 1014.3
20260506151404 67 159 1.0 1.0 0.00 0.00 0.00 72 1014.4
20260506150902 67 172 1.0 2.0 0.00 0.00 0.00 72 1014.0
20260506150358 68 211 2.0 3.0 0.00 0.00 0.00 71 1014.3
20260506145855 68 185 1.0 2.0 0.00 0.00 0.00 71 1014.1
20260506145351 67 176 0.0 0.0 0.00 0.00 0.00 72 1013.9
20260506144849 66 174 0.0 1.0 0.00 0.00 0.00 73 1013.9
20260506144345 67 168 0.0 1.0 0.00 0.00 0.00 73 1013.9
20260506143844 67 142 1.0 2.0 0.00 0.00 0.00 71 1013.9
20260506143340 67 153 0.0 1.0 0.00 0.00 0.00 72 1013.9
20260506142839 67 207 0.0 1.0 0.00 0.00 0.00 73 1013.7
20260506142336 67 149 2.0 2.0 0.00 0.00 0.00 72 1013.9
20260506141835 67 168 2.0 3.0 0.00 0.00 0.00 72 1014.1
20260506141332 66 160 2.0 3.0 0.00 0.00 0.00 72 1013.9
20260506140830 66 205 0.0 1.0 0.00 0.00 0.00 73 1014.1
20260506140327 66 221 2.0 3.0 0.00 0.00 0.00 72 1014.3
20260506135824 67 193 2.0 2.0 0.00 0.00 0.00 72 1014.1
20260506135320 68 158 1.0 1.0 0.00 0.00 0.00 72 1014.1
20260506134817 68 191 1.0 2.0 0.00 0.00 0.00 71 1013.9
20260506134313 67 204 0.0 1.0 0.00 0.00 0.00 72 1014.1
20260506133810 67 200 3.0 4.0 0.00 0.00 0.00 72 1014.2
20260506133307 66 147 0.0 0.0 0.00 0.00 0.00 74 1014.2
20260506132804 65 175 0.0 0.0 0.00 0.00 0.00 75 1014.4
20260506132301 65 154 1.0 2.0 0.00 0.00 0.00 75 1014.5
20260506131759 65 178 2.0 2.0 0.00 0.00 0.00 75 1014.1
20260506131254 65 174 1.0 1.0 0.00 0.00 0.00 76 1013.9
20260506130752 64 161 0.0 1.0 0.00 0.00 0.00 77 1014.0
20260506130249 64 158 2.0 2.0 0.00 0.00 0.00 77 1013.9
20260506125747 63 146 1.0 1.0 0.00 0.00 0.00 78 1014.0
20260506125244 63 174 0.0 0.0 0.00 0.00 0.00 78 1014.1
20260506124743 63 143 4.0 7.0 0.00 0.00 0.00 78 1014.0
20260506124240 63 218 2.0 2.0 0.00 0.00 0.00 78 1014.0
20260506123737 62 182 1.0 2.0 0.00 0.00 0.00 79 1014.3
20260506123236 63 176 0.0 1.0 0.00 0.00 0.00 79 1014.1
20260506122732 63 197 3.0 6.0 0.00 0.00 0.00 79 1014.1
20260506122229 62 234 5.0 7.0 0.00 0.00 0.00 79 1014.4
20260506121728 63 180 1.0 1.0 0.00 0.00 0.00 79 1014.4
20260506121224 63 181 1.0 1.0 0.00 0.00 0.00 79 1014.4
20260506120722 63 219 2.0 2.0 0.00 0.00 0.00 79 1014.7
20260506120219 62 166 0.0 0.0 0.00 0.00 0.00 81 1014.7
20260506115717 62 153 1.0 2.0 0.00 0.00 0.00 80 1014.6
20260506115215 62 166 0.0 0.0 0.00 0.00 0.00 80 1014.7
20260506114712 61 163 1.0 1.0 0.00 0.00 0.00 81 1014.7
20260506114210 61 217 2.0 3.0 0.00 0.00 0.00 81 1014.5
20260506113708 61 197 0.0 0.0 0.00 0.00 0.00 82 1014.7
20260506113205 61 225 1.0 2.0 0.00 0.00 0.00 82 1014.6
20260506112701 60 172 1.0 1.0 0.00 0.00 0.00 82 1014.5
20260506112159 60 144 2.0 2.0 0.00 0.00 0.00 82 1014.4
20260506111656 60 175 0.0 1.0 0.00 0.00 0.00 84 1014.5
20260506111154 58 154 0.0 0.0 0.00 0.00 0.00 88 1014.3
20260506110651 57 171 0.0 0.0 0.00 0.00 0.00 88 1014.7
20260506110148 57 259 0.0 2.0 0.00 0.00 0.00 89 1014.7
20260506105645 57 156 1.0 1.0 0.00 0.00 0.00 90 1014.7